Location: Pine Mountain Observatory
(43.7910°N, 120.9377°W)
Time: 07:56:37
(UTC-08:00)

Cosmos 1867 - Visible Passes

Search period start: 23 February 2018 00:00
Search period end: 05 March 2018 00:00
Orbit: 777 x 799 km, 65.0° (Epoch: 23 February)

Date Brightness Start Highest point End Pass type
(mag) Time Alt. Az. Time Alt. Az. Time Alt. Az.
24 Feb 6.8 05:56:22 10° SE 05:59:04 14° ESE 06:01:47 10° ENE visible
27 Feb 5.2 06:02:07 10° S 06:07:05 38° ESE 06:12:06 10° NE visible
28 Feb 5.7 05:31:01 10° S 05:35:34 28° ESE 05:40:09 10° NE visible
01 Mar 6.1 05:00:08 10° SSE 05:04:04 21° ESE 05:08:03 10° ENE visible
02 Mar 6.3 04:29:39 10° SE 04:32:38 15° ESE 04:35:38 10° ENE visible
03 Mar 6.6 04:00:21 10° ESE 04:01:13 10° ESE 04:02:05 10° E visible
03 Mar 3.8 05:38:26 10° SSW 05:43:50 74° ESE 05:49:18 10° NE visible
04 Mar 4.3 05:06:58 10° SSW 05:12:14 55° ESE 05:17:34 10° NE visible
